Regional Weather Roundup
Issued by NWS

Home | Current Version | Previous Version | Text Only | Print | Product List | Glossary Off
Versions: 1 2 3 4 5 6 7 8 9 10 11 12 13 14 15 16 17 18 19 20 21 22 23 24 25 26 27 28 29 30 31 32 33 34 35 36 37 38 39 40 41 42 43 44 45 46 47 48 49 50

000
ASUS43 KLMK 240010
RWRKY
KENTUCKY REGIONAL WEATHER ROUNDUP
NATIONAL WEATHER SERVICE LOUISVILLE KY
800 PM EDT SAT JUL 23 2016

NOTE "FAIR" INDICATES FEW OR NO CLOUDS BELOW 12,000 FEET
WITH NO SIGNIFICANT WEATHER AND/OR OBSTRUCTIONS TO VISIBILITY.

KYZ001>023-026-027-061>063-070>075-240100-
WESTERN AND SOUTH CENTRAL KENTUCKY

CITY           SKY/WX    TMP DP  RH WIND       PRES   REMARKS
PADUCAH        SUNNY     88  76  67 SE3       29.90R HX  99
HENDERSON      SUNNY     90  75  62 CALM      29.91S HX 100
OWENSBORO      MOSUNNY   91  77  63 NW5       29.93R HX 104
HOPKINSVILLE   MOSUNNY   88  77  70 NE1       29.93R THUNDER HX 100
BOWLING GREEN  SUNNY     90  76  63 SE5       29.94R HX 101
GLASGOW        CLEAR     89  72  58 E3        29.96R HX  95
$$

KYZ024-025-028>034-038-045-046-053-240100-
NORTH CENTRAL KENTUCKY

CITY           SKY/WX    TMP DP  RH WIND       PRES   REMARKS
LOUISVILLE/SDF PTSUNNY   91  71  51 CALM      29.93R HX  97
LOUISVILLE/LOU PTSUNNY   91  72  53 SE5       29.94R HX  98
FORT KNOX      SUNNY     88  76  66 N3        29.94R HX  98
$$

KYZ035>037-039>044-047>052-055>060-089>105-240100-
NORTHEAST KENTUCKY

CITY           SKY/WX    TMP DP  RH WIND       PRES   REMARKS
LEXINGTON      CLEAR     90  72  55 W5        29.97S HX  97
COVINGTON      PTCLDY    89  73  59 W6        29.96S HX  97
FRANKFORT      CLEAR     90  71  53 NW5       29.95S HX  96
$$

KYZ054-064>069-076>088-106>120-240100-
SOUTHEAST KENTUCKY

CITY           SKY/WX    TMP DP  RH WIND       PRES   REMARKS
JACKSON        CLEAR     86  71  60 CALM      30.00F HX  91
LONDON         CLEAR     88  70  55 E3        29.99S HX  93
SOMERSET       CLEAR     84  72  65 CALM      29.98S
MIDDLESBORO    LGT RAIN  81  70  70 CALM      30.01R
MONTICELLO     CLEAR    N/A N/A N/A NE6       30.00R
$$





USA.gov is the U.S. government's official web portal to all federal, state and local government web resources and services.